Location: Unspecified
(0.0000°N, 0.0000°E)
Time: 15:13:01
(UTC+00:00)

FENGYUN 1C DEB - Pass Details

Date: 19 February 2026
Orbit: 819 x 963 km, 99.2° (Epoch: 3 October)

Event Time Altitude Azimuth Distance (km) Brightness Sun altitude
Rises 03:34:20 0° 142° (SE) 3,503 ? -39.0°
Reaches altitude 10° 03:37:16 10° 128° (SE) 2,538 ? -38.2°
Maximum altitude 03:41:35 23° 77° (ENE) 1,759 ? -37.2°
Enters shadow 03:44:00 17° 43° (NE) 2,012 ? -36.6°
